Regional Weather Roundup
Issued by NWS

Home | Current Version | Previous Version | Graphics & Text | Print | Product List | Glossary On
Versions: 1 2 3 4 5 6 7 8 9 10 11 12 13 14 15 16 17 18 19 20 21 22 23 24 25 26 27 28 29 30 31 32 33 34 35 36 37 38 39 40 41 42 43 44 45 46 47 48 49 50
000
ASUS43 KTOP 060059
RWRKS

WEATHER ROUNDUP FOR KANSAS
NATIONAL WEATHER SERVICE GOODLAND KS
700 PM CST MON DEC 05 2016

NOTE:  "FAIR" INDICATES FEW OR NO CLOUDS BELOW 12,000 FEET WITH NO
SIGNIFICANT WEATHER AND/OR OBSTRUCTIONS TO VISIBILITY.

KSZ001>006-013>018-027>032-041>047-060200-
NORTHWEST KANSAS

CITY           SKY/WX    TMP DP  RH WIND       PRES   REMARKS
GOODLAND       CLEAR     33  12  41 N23G38    29.80R WCI  21
HAYS           CLEAR     42  31  64 N3        29.69R
HILL CITY      CLEAR     45  27  49 NW9       29.72R
RUSSELL        CLEAR     39  32  76 S6        29.66R
$$

KSZ061>065-074>080-084>089-060200-
SOUTHWEST KANSAS

CITY           SKY/WX    TMP DP  RH WIND       PRES   REMARKS
DODGE CITY     CLEAR     42  29  59 E5        29.63R
ELKHART          N/A     49  23  36 W7          N/A
GARDEN CITY    CLEAR     40  29  64 N17       29.67R WCI  31
GREAT BEND     CLEAR     41  33  73 E6        29.67R
LIBERAL        CLEAR     43  21  42 E3        29.59R
$$

KSZ066>073-081>083-090>101-060200-
SOUTHEAST KANSAS

CITY           SKY/WX    TMP DP  RH WIND       PRES   REMARKS
CHANUTE        CLEAR     40  36  86 SE7       29.73S
COFFEYVILLE    CLOUDY    38  36  92 CALM      29.74S
HUTCHINSON     CLEAR     40  34  79 SE7       29.68S
MEDICINE LODGE   N/A     42  34  73 SE7       29.65R
NEWTON         CLEAR     41  34  76 S8        29.70R
PARSONS        CLEAR     37  35  92 CALM      29.75R
WICHITA INTL   CLEAR     42  36  79 S6        29.68R
WICHITA JABRA  CLEAR     41  35  79 SE3       29.69R
WINFIELD       CLEAR     42  37  82 E3        29.71R
$$

KSZ007>012-019>026-033>040-048>060-102>105-060200-
NORTHEAST KANSAS

CITY           SKY/WX    TMP DP  RH WIND       PRES   REMARKS
CONCORDIA      CLEAR     41  34  76 S9        29.68R
EMPORIA        CLEAR     39  36  89 SE9       29.71R
LAWRENCE       CLEAR     39  34  82 E8        29.73R
MANHATTAN      CLEAR     41  34  76 SW5       29.69R
OLATHE IND     CLEAR     41  34  76 SE12      29.73F
OLATHE EXE     CLEAR     39  33  79 SE9       29.74S
SALINA         CLEAR     41  34  76 SE8       29.68S
TOPEKA BILLARD CLEAR     41  33  73 SE7       29.72R
TOPEKA FORBES  CLEAR     42  34  73 S6        29.72R
$$




USA.gov is the U.S. government's official web portal to all federal, state and local government web resources and services.